Zurück zum Katalog

STARLINK-6100

AktivKommunikationVLEO
NORAD 57125·PAYLOAD·🇺🇸 United States

Gestartet Jun 23, 2023 von Cape Canaveral Space Force Station

Loading…

Nächste Überflüge (nächste 24 Stunden)

TLE

AktuellSource: CelesTrak SupGP

Epoche: Sep 14, 2026, 21:24 UTC

1 57125C 23090AA  26257.89215278  .00014197  00000+0  51417-3 0  2577
2 57125  43.0025 274.7032 0001947 273.1294 347.5399 15.27572237    12

Verfolge STARLINK-6100 in Echtzeit mit AllMySat

Download on the App Store